This is the latest recevied weather packets stored in our database for station/object WB5HZM-3. If no packets are shown the sender has not sent any weather packets the latest 10 day(s).
| Time | Temp. | Humidity | Pressure | Rain* | Wind** | Luminosity | Snow |
|---|---|---|---|---|---|---|---|
| 1777914811 | 25.56° C | 55% | 1016 hPa | 0 mm | - | - | - |
| 1777914206 | 25° C | 54% | 1016.2 hPa | 0 mm | - | - | - |
| 1777913605 | 25° C | 56% | 1016.3 hPa | 0 mm | - | - | - |
| 1777913000 | 24.44° C | 54% | 1016.4 hPa | 0 mm | - | - | - |
| 1777912415 | 24.44° C | 55% | 1016.4 hPa | 0 mm | - | - | - |
| 1777911813 | 24.44° C | 55% | 1016.6 hPa | 0 mm | - | - | - |
| 1777911209 | 24.44° C | 54% | 1016.7 hPa | 0 mm | - | - | - |
| 1777910605 | 23.89° C | 56% | 1017 hPa | 0 mm | - | - | - |
| 1777910001 | 23.89° C | 55% | 1017 hPa | 0 mm | - | - | - |
| 1777909401 | 23.33° C | 56% | 1017 hPa | 0 mm | - | - | - |
| 1777908797 | 23.33° C | 57% | 1017 hPa | 0 mm | - | - | - |
| 1777908213 | 22.78° C | 57% | 1017.1 hPa | 0 mm | - | - | - |
| 1777907611 | 22.78° C | 58% | 1017.1 hPa | 0 mm | - | - | - |
| 1777907007 | 22.78° C | 59% | 1017.1 hPa | 0 mm | - | - | - |
| 1777906403 | 22.22° C | 60% | 1017.3 hPa | 0 mm | - | - | - |
| 1777905803 | 22.22° C | 60% | 1017.2 hPa | 0 mm | - | - | - |
| 1777905199 | 22.22° C | 64% | 1017.2 hPa | 0 mm | - | - | - |
| 1777904615 | 21.67° C | 63% | 1017.3 hPa | 0 mm | - | - | - |
| 1777904010 | 21.67° C | 65% | 1017.3 hPa | 0 mm | - | - | - |
| 1777903410 | 21.11° C | 66% | 1017.3 hPa | 0 mm | - | - | - |
| 1777902806 | 20.56° C | 68% | 1017.4 hPa | 0 mm | - | - | - |
| 1777902202 | 20.56° C | 68% | 1017.2 hPa | 0 mm | - | - | - |
| 1777901602 | 20° C | 71% | 1017.2 hPa | 0 mm | - | - | - |
| 1777900998 | 19.44° C | 71% | 1017.3 hPa | 0 mm | - | - | - |
| 1777900413 | 18.89° C | 71% | 1017.1 hPa | 0 mm | - | - | - |
* Rain latest hour (hover to see other rain measurements)
** Current wind speed in m/s (hover to see current wind gust speed)